| time (UTC) | temp F | wind direction | speed MPH | gust MPH | rain 1hr in | rain 24hr in | rain mn in | humidity % | barometer mb |
| 20260502232919 | 50 | 92 | 1.0 | 2.0 | 0.00 | 0.00 | 0.00 | 53 | 1016.3 |
| 20260502232415 | 50 | 95 | 1.0 | 1.0 | 0.00 | 0.00 | 0.00 | 54 | 1016.2 |
| 20260502231912 | 51 | 198 | 4.0 | 6.0 | 0.00 | 0.00 | 0.00 | 52 | 1016.0 |
| 20260502231409 | 50 | 68 | 3.0 | 3.0 | 0.00 | 0.00 | 0.00 | 54 | 1016.3 |
| 20260502230908 | 51 | 120 | 2.0 | 2.0 | 0.00 | 0.00 | 0.00 | 54 | 1016.2 |
| 20260502230405 | 51 | 109 | 1.0 | 2.0 | 0.00 | 0.00 | 0.00 | 53 | 1016.1 |
| 20260502225903 | 51 | 103 | 1.0 | 2.0 | 0.00 | 0.00 | 0.00 | 52 | 1016.3 |
| 20260502225358 | 51 | 84 | 1.0 | 1.0 | 0.00 | 0.00 | 0.00 | 50 | 1016.3 |
| 20260502224855 | 51 | 118 | 4.0 | 7.0 | 0.00 | 0.00 | 0.00 | 51 | 1016.4 |
| 20260502224351 | 52 | 137 | 1.0 | 2.0 | 0.00 | 0.00 | 0.00 | 51 | 1016.5 |
| 20260502223849 | 52 | 201 | 2.0 | 3.0 | 0.00 | 0.00 | 0.00 | 51 | 1016.5 |
| 20260502223347 | 51 | 117 | 1.0 | 2.0 | 0.00 | 0.00 | 0.00 | 52 | 1016.5 |
| 20260502222844 | 50 | 136 | 4.0 | 6.0 | 0.00 | 0.00 | 0.00 | 52 | 1016.7 |
| 20260502222342 | 52 | 104 | 2.0 | 2.0 | 0.00 | 0.00 | 0.00 | 52 | 1016.4 |
| 20260502221837 | 51 | 215 | 4.0 | 6.0 | 0.00 | 0.00 | 0.00 | 52 | 1016.6 |
| 20260502221334 | 51 | 75 | 2.0 | 3.0 | 0.00 | 0.00 | 0.00 | 50 | 1016.7 |
| 20260502220831 | 50 | 90 | 2.0 | 2.0 | 0.00 | 0.00 | 0.00 | 53 | 1016.6 |
| 20260502220327 | 50 | 131 | 3.0 | 5.0 | 0.00 | 0.00 | 0.00 | 54 | 1016.8 |
| 20260502215823 | 51 | 170 | 3.0 | 3.0 | 0.00 | 0.00 | 0.00 | 51 | 1016.7 |
| 20260502215321 | 51 | 97 | 1.0 | 2.0 | 0.00 | 0.00 | 0.00 | 52 | 1016.8 |
| 20260502214818 | 50 | 139 | 2.0 | 3.0 | 0.00 | 0.00 | 0.00 | 54 | 1016.8 |
| 20260502214315 | 51 | 61 | 1.0 | 2.0 | 0.00 | 0.00 | 0.00 | 52 | 1016.7 |
| 20260502213812 | 52 | 148 | 3.0 | 6.0 | 0.00 | 0.00 | 0.00 | 50 | 1016.8 |
| 20260502213310 | 51 | 92 | 1.0 | 2.0 | 0.00 | 0.00 | 0.00 | 52 | 1016.9 |
| 20260502212808 | 51 | 106 | 3.0 | 3.0 | 0.00 | 0.00 | 0.00 | 50 | 1017.0 |
| 20260502212306 | 51 | 178 | 2.0 | 2.0 | 0.00 | 0.00 | 0.00 | 51 | 1016.9 |
| 20260502211803 | 51 | 96 | 3.0 | 6.0 | 0.00 | 0.00 | 0.00 | 50 | 1016.9 |
| 20260502211258 | 52 | 129 | 2.0 | 2.0 | 0.00 | 0.00 | 0.00 | 50 | 1017.1 |
| 20260502210756 | 53 | 84 | 2.0 | 2.0 | 0.00 | 0.00 | 0.00 | 49 | 1017.0 |
| 20260502210253 | 53 | 114 | 4.0 | 5.0 | 0.00 | 0.00 | 0.00 | 48 | 1017.1 |
| 20260502205750 | 52 | 195 | 5.0 | 6.0 | 0.00 | 0.00 | 0.00 | 49 | 1017.0 |
| 20260502205246 | 53 | 102 | 3.0 | 3.0 | 0.00 | 0.00 | 0.00 | 50 | 1017.1 |
| 20260502204744 | 54 | 175 | 6.0 | 8.0 | 0.00 | 0.00 | 0.00 | 48 | 1017.1 |
| 20260502204240 | 53 | 93 | 3.0 | 3.0 | 0.00 | 0.00 | 0.00 | 50 | 1017.2 |
| 20260502203738 | 52 | 99 | 3.0 | 3.0 | 0.00 | 0.00 | 0.00 | 52 | 1017.3 |
| 20260502203236 | 51 | 140 | 5.0 | 6.0 | 0.00 | 0.00 | 0.00 | 51 | 1017.4 |
| 20260502202730 | 51 | 97 | 2.0 | 2.0 | 0.00 | 0.00 | 0.00 | 51 | 1017.2 |
| 20260502202229 | 51 | 58 | 1.0 | 1.0 | 0.00 | 0.00 | 0.00 | 52 | 1017.7 |
| 20260502201725 | 51 | 38 | 5.0 | 8.0 | 0.00 | 0.00 | 0.00 | 50 | 1017.5 |
| 20260502201222 | 51 | 92 | 3.0 | 5.0 | 0.00 | 0.00 | 0.00 | 51 | 1017.6 |
| 20260502200718 | 52 | 136 | 3.0 | 5.0 | 0.00 | 0.00 | 0.00 | 50 | 1017.6 |
| 20260502200215 | 52 | 76 | 2.0 | 2.0 | 0.00 | 0.00 | 0.00 | 52 | 1017.9 |
| 20260502195713 | 53 | 77 | 2.0 | 2.0 | 0.00 | 0.00 | 0.00 | 50 | 1017.8 |
| 20260502195209 | 53 | 142 | 3.0 | 5.0 | 0.00 | 0.00 | 0.00 | 53 | 1017.9 |
| 20260502194706 | 53 | 95 | 3.0 | 5.0 | 0.00 | 0.00 | 0.00 | 53 | 1018.0 |
| 20260502194203 | 52 | 90 | 4.0 | 5.0 | 0.00 | 0.00 | 0.00 | 52 | 1018.2 |
| 20260502193659 | 50 | 89 | 3.0 | 3.0 | 0.00 | 0.00 | 0.00 | 54 | 1018.1 |
| 20260502193156 | 50 | 76 | 4.0 | 5.0 | 0.00 | 0.00 | 0.00 | 51 | 1018.3 |
| 20260502192651 | 50 | 95 | 1.0 | 2.0 | 0.00 | 0.00 | 0.00 | 50 | 1018.3 |
| 20260502192149 | 51 | 103 | 3.0 | 3.0 | 0.00 | 0.00 | 0.00 | 49 | 1018.3 |
| 20260502191646 | 51 | 86 | 3.0 | 7.0 | 0.00 | 0.00 | 0.00 | 49 | 1018.3 |
| 20260502191143 | 50 | 99 | 2.0 | 2.0 | 0.00 | 0.00 | 0.00 | 50 | 1018.6 |
| 20260502190640 | 50 | 102 | 4.0 | 5.0 | 0.00 | 0.00 | 0.00 | 50 | 1018.7 |
| 20260502190133 | 51 | 88 | 5.0 | 6.0 | 0.00 | 0.00 | 0.00 | 49 | 1018.5 |
| 20260502185627 | 52 | 108 | 2.0 | 2.0 | 0.00 | 0.00 | 0.00 | 49 | 1018.4 |
| 20260502185124 | 54 | 82 | 2.0 | 3.0 | 0.00 | 0.00 | 0.00 | 46 | 1018.6 |
| 20260502184620 | 54 | 97 | 1.0 | 1.0 | 0.00 | 0.00 | 0.00 | 50 | 1018.5 |
| 20260502184115 | 51 | 101 | 2.0 | 2.0 | 0.00 | 0.00 | 0.00 | 51 | 1018.5 |
| 20260502183612 | 51 | 93 | 3.0 | 5.0 | 0.00 | 0.00 | 0.00 | 50 | 1018.8 |
| 20260502183108 | 52 | 91 | 2.0 | 2.0 | 0.00 | 0.00 | 0.00 | 49 | 1019.0 |
| 20260502182604 | 52 | 108 | 2.0 | 3.0 | 0.00 | 0.00 | 0.00 | 48 | 1018.8 |
| 20260502182059 | 53 | 138 | 1.0 | 1.0 | 0.00 | 0.00 | 0.00 | 47 | 1018.6 |
| 20260502181557 | 53 | 105 | 5.0 | 7.0 | 0.00 | 0.00 | 0.00 | 47 | 1018.7 |
| 20260502181056 | 54 | 349 | 1.0 | 2.0 | 0.00 | 0.00 | 0.00 | 41 | 1018.9 |
| 20260502180553 | 53 | 21 | 2.0 | 2.0 | 0.00 | 0.00 | 0.00 | 39 | 1019.0 |
| 20260502170511 | 54 | 6 | 4.0 | 7.0 | 0.00 | 0.00 | 0.00 | 40 | 1019.6 |
| 20260502163955 | 52 | 48 | 1.0 | 1.0 | 0.00 | 0.00 | 0.00 | 44 | 1020.0 |
| 20260502163451 | 52 | 288 | 6.0 | 7.0 | 0.00 | 0.00 | 0.00 | 41 | 1019.9 |
| 20260502162949 | 53 | 7 | 4.0 | 6.0 | 0.00 | 0.00 | 0.00 | 42 | 1019.9 |
| 20260502162445 | 52 | 59 | 1.0 | 1.0 | 0.00 | 0.00 | 0.00 | 43 | 1019.9 |
| 20260502161943 | 51 | 300 | 4.0 | 6.0 | 0.00 | 0.00 | 0.00 | 43 | 1020.0 |
| 20260502161439 | 52 | 293 | 3.0 | 3.0 | 0.00 | 0.00 | 0.00 | 45 | 1020.1 |
| 20260502160937 | 53 | 60 | 2.0 | 2.0 | 0.00 | 0.00 | 0.00 | 43 | 1020.1 |
| 20260502160435 | 51 | 204 | 2.0 | 2.0 | 0.00 | 0.00 | 0.00 | 47 | 1019.9 |
| 20260502151913 | 50 | 316 | 5.0 | 7.0 | 0.00 | 0.00 | 0.00 | 49 | 1020.4 |
| 20260502151409 | 50 | 78 | 1.0 | 1.0 | 0.00 | 0.00 | 0.00 | 48 | 1020.2 |
| 20260502150907 | 50 | 36 | 3.0 | 5.0 | 0.00 | 0.00 | 0.00 | 45 | 1020.4 |
| 20260502150403 | 50 | 278 | 2.0 | 3.0 | 0.00 | 0.00 | 0.00 | 51 | 1020.4 |
| 20260502130249 | 41 | 298 | 2.0 | 2.0 | 0.00 | 0.00 | 0.00 | 79 | 1020.8 |
| 20260502123735 | 38 | 105 | 1.0 | 1.0 | 0.00 | 0.00 | 0.00 | 85 | 1020.8 |
| 20260502123231 | 37 | 330 | 4.0 | 5.0 | 0.00 | 0.00 | 0.00 | 86 | 1020.8 |
| 20260502122728 | 37 | 14 | 2.0 | 2.0 | 0.00 | 0.00 | 0.00 | 87 | 1020.8 |
| 20260502122224 | 37 | 112 | 2.0 | 2.0 | 0.00 | 0.00 | 0.00 | 87 | 1020.8 |
| 20260502121723 | 36 | 74 | 1.0 | 1.0 | 0.00 | 0.00 | 0.00 | 88 | 1020.8 |
| 20260502121220 | 35 | 87 | 1.0 | 1.0 | 0.00 | 0.00 | 0.00 | 88 | 1020.6 |
| 20260502120716 | 35 | 55 | 1.0 | 2.0 | 0.00 | 0.00 | 0.00 | 90 | 1020.6 |
| 20260502120213 | 34 | 52 | 1.0 | 1.0 | 0.00 | 0.00 | 0.00 | 91 | 1020.5 |
| 20260502115711 | 33 | 87 | 0.0 | 0.0 | 0.00 | 0.00 | 0.00 | 92 | 1020.4 |
| 20260502115208 | 33 | 81 | 0.0 | 0.0 | 0.00 | 0.00 | 0.00 | 93 | 1020.2 |
| 20260502114703 | 32 | 76 | 0.0 | 0.0 | 0.00 | 0.00 | 0.00 | 94 | 1020.5 |
| 20260502114201 | 31 | 80 | 0.0 | 0.0 | 0.00 | 0.00 | 0.00 | 94 | 1020.4 |
| 20260502113658 | 31 | 83 | 0.0 | 0.0 | 0.00 | 0.00 | 0.00 | 94 | 1020.4 |
| 20260502113156 | 31 | 84 | 0.0 | 0.0 | 0.00 | 0.00 | 0.00 | 94 | 1020.3 |
| 20260502112654 | 31 | 86 | 0.0 | 0.0 | 0.00 | 0.00 | 0.00 | 94 | 1020.5 |
| 20260502112151 | 30 | 83 | 0.0 | 0.0 | 0.00 | 0.00 | 0.00 | 95 | 1020.5 |
| 20260502111648 | 29 | 90 | 0.0 | 0.0 | 0.00 | 0.00 | 0.00 | 95 | 1020.2 |
| 20260502111146 | 29 | 88 | 0.0 | 0.0 | 0.00 | 0.00 | 0.00 | 95 | 1020.3 |
| 20260502110643 | 29 | 90 | 0.0 | 0.0 | 0.00 | 0.00 | 0.00 | 95 | 1020.4 |
| 20260502110140 | 29 | 91 | 0.0 | 0.0 | 0.00 | 0.00 | 0.00 | 95 | 1020.3 |
| 20260502105638 | 29 | 90 | 0.0 | 0.0 | 0.00 | 0.00 | 0.00 | 95 | 1020.2 |
| 20260502105135 | 29 | 95 | 0.0 | 0.0 | 0.00 | 0.00 | 0.00 | 94 | 1020.4 |
| 20260502104632 | 29 | 90 | 0.0 | 0.0 | 0.00 | 0.00 | 0.00 | 94 | 1020.2 |
| 20260502104129 | 30 | 95 | 0.0 | 0.0 | 0.00 | 0.00 | 0.00 | 94 | 1020.3 |
| 20260502103627 | 30 | 95 | 0.0 | 0.0 | 0.00 | 0.00 | 0.00 | 94 | 1020.4 |
| 20260502103125 | 29 | 88 | 0.0 | 0.0 | 0.00 | 0.00 | 0.00 | 94 | 1020.1 |
| 20260502102621 | 29 | 87 | 0.0 | 0.0 | 0.00 | 0.00 | 0.00 | 94 | 1020.2 |
| 20260502102118 | 29 | 86 | 0.0 | 0.0 | 0.00 | 0.00 | 0.00 | 94 | 1020.0 |
| 20260502101616 | 29 | 84 | 0.0 | 0.0 | 0.00 | 0.00 | 0.00 | 94 | 1020.4 |
| 20260502101114 | 30 | 88 | 0.0 | 0.0 | 0.00 | 0.00 | 0.00 | 94 | 1020.3 |
| 20260502100613 | 30 | 83 | 0.0 | 0.0 | 0.00 | 0.00 | 0.00 | 94 | 1020.2 |
| 20260502100110 | 29 | 91 | 0.0 | 0.0 | 0.00 | 0.00 | 0.00 | 94 | 1020.0 |
| 20260502091044 | 30 | 91 | 0.0 | 0.0 | 0.00 | 0.00 | 0.00 | 93 | 1020.0 |
| 20260502090541 | 29 | 83 | 0.0 | 0.0 | 0.00 | 0.00 | 0.00 | 93 | 1020.1 |
| 20260502071435 | 29 | 87 | 0.0 | 0.0 | 0.00 | 0.00 | 0.00 | 93 | 1020.1 |
| 20260502070934 | 29 | 82 | 0.0 | 0.0 | 0.00 | 0.00 | 0.00 | 92 | 1020.1 |
| 20260502070432 | 29 | 82 | 0.0 | 0.0 | 0.00 | 0.00 | 0.00 | 92 | 1020.2 |
| 20260502065930 | 29 | 82 | 0.0 | 0.0 | 0.00 | 0.00 | 0.00 | 92 | 1020.2 |
| 20260502065428 | 30 | 81 | 0.0 | 0.0 | 0.00 | 0.00 | 0.00 | 92 | 1020.3 |
| 20260502064926 | 29 | 86 | 0.0 | 0.0 | 0.00 | 0.00 | 0.00 | 92 | 1020.3 |
| 20260502064423 | 29 | 86 | 0.0 | 0.0 | 0.00 | 0.00 | 0.00 | 92 | 1020.4 |
| 20260502063920 | 29 | 85 | 0.0 | 0.0 | 0.00 | 0.00 | 0.00 | 92 | 1020.2 |
| 20260502063418 | 29 | 85 | 0.0 | 0.0 | 0.00 | 0.00 | 0.00 | 92 | 1020.3 |
| 20260502062916 | 29 | 85 | 0.0 | 0.0 | 0.00 | 0.00 | 0.00 | 92 | 1020.3 |
| 20260502062412 | 29 | 84 | 0.0 | 0.0 | 0.00 | 0.00 | 0.00 | 92 | 1020.5 |
| 20260502061911 | 29 | 84 | 0.0 | 0.0 | 0.00 | 0.00 | 0.00 | 91 | 1020.3 |
| 20260502061409 | 29 | 85 | 0.0 | 0.0 | 0.00 | 0.00 | 0.00 | 91 | 1020.8 |
| 20260502060904 | 30 | 85 | 0.0 | 0.0 | 0.00 | 0.00 | 0.00 | 90 | 1020.5 |
| 20260502060359 | 30 | 86 | 0.0 | 0.0 | 0.00 | 0.00 | 0.00 | 90 | 1020.7 |
| 20260502055857 | 30 | 85 | 0.0 | 0.0 | 0.00 | 0.00 | 0.00 | 89 | 1020.6 |
| 20260502055354 | 30 | 88 | 0.0 | 0.0 | 0.00 | 0.00 | 0.00 | 89 | 1020.5 |
| 20260502054854 | 30 | 86 | 0.0 | 0.0 | 0.00 | 0.00 | 0.00 | 90 | 1020.6 |
| 20260502054351 | 29 | 82 | 0.0 | 0.0 | 0.00 | 0.00 | 0.00 | 89 | 1020.4 |
| 20260502053849 | 29 | 81 | 0.0 | 0.0 | 0.00 | 0.00 | 0.00 | 89 | 1020.6 |
| 20260502053346 | 29 | 84 | 0.0 | 0.0 | 0.00 | 0.00 | 0.00 | 88 | 1020.6 |
| 20260502052843 | 30 | 85 | 0.0 | 0.0 | 0.00 | 0.00 | 0.00 | 88 | 1020.4 |
| 20260502052341 | 30 | 85 | 0.0 | 0.0 | 0.00 | 0.00 | 0.00 | 88 | 1020.7 |
| 20260502051839 | 30 | 85 | 0.0 | 0.0 | 0.00 | 0.00 | 0.00 | 87 | 1020.4 |
| 20260502051337 | 30 | 84 | 0.0 | 0.0 | 0.00 | 0.00 | 0.00 | 87 | 1020.5 |
| 20260502050833 | 30 | 85 | 0.0 | 0.0 | 0.00 | 0.00 | 0.00 | 86 | 1020.7 |
| 20260502050330 | 31 | 85 | 0.0 | 0.0 | 0.00 | 0.00 | 0.00 | 85 | 1020.5 |
| 20260502045827 | 31 | 87 | 0.0 | 0.0 | 0.00 | 0.01 | 0.01 | 85 | 1020.5 |
| 20260502045323 | 31 | 93 | 0.0 | 0.0 | 0.00 | 0.01 | 0.01 | 85 | 1020.6 |
| 20260502044821 | 31 | 84 | 0.0 | 0.0 | 0.00 | 0.01 | 0.01 | 85 | 1020.5 |
| 20260502044317 | 31 | 86 | 0.0 | 0.0 | 0.00 | 0.01 | 0.01 | 85 | 1020.5 |
| 20260502043814 | 32 | 81 | 0.0 | 0.0 | 0.00 | 0.01 | 0.01 | 85 | 1020.5 |
| 20260502043312 | 32 | 77 | 0.0 | 0.0 | 0.00 | 0.01 | 0.01 | 85 | 1020.5 |
| 20260502042811 | 31 | 70 | 0.0 | 0.0 | 0.00 | 0.01 | 0.01 | 86 | 1020.5 |
| 20260502042309 | 31 | 81 | 0.0 | 0.0 | 0.00 | 0.01 | 0.01 | 86 | 1020.4 |
| 20260502041806 | 31 | 81 | 0.0 | 0.0 | 0.00 | 0.01 | 0.01 | 85 | 1020.4 |
| 20260502041303 | 32 | 81 | 0.0 | 0.0 | 0.00 | 0.01 | 0.01 | 85 | 1020.4 |
| 20260502040800 | 31 | 80 | 0.0 | 0.0 | 0.00 | 0.01 | 0.01 | 86 | 1020.5 |
| 20260502040257 | 31 | 80 | 0.0 | 0.0 | 0.00 | 0.01 | 0.01 | 86 | 1020.2 |
| 20260502035753 | 31 | 81 | 0.0 | 0.0 | 0.00 | 0.01 | 0.01 | 85 | 1020.2 |
| 20260502035250 | 32 | 81 | 0.0 | 0.0 | 0.00 | 0.01 | 0.01 | 84 | 1020.3 |
| 20260502034747 | 32 | 86 | 0.0 | 0.0 | 0.00 | 0.01 | 0.01 | 84 | 1020.3 |
| 20260502034245 | 32 | 81 | 0.0 | 0.0 | 0.00 | 0.01 | 0.01 | 83 | 1020.5 |
| 20260502033743 | 32 | 81 | 0.0 | 0.0 | 0.00 | 0.01 | 0.01 | 83 | 1020.3 |
| 20260502033241 | 33 | 81 | 0.0 | 0.0 | 0.00 | 0.01 | 0.01 | 82 | 1020.2 |
| 20260502032737 | 33 | 75 | 0.0 | 0.0 | 0.00 | 0.01 | 0.01 | 82 | 1020.2 |
| 20260502032233 | 32 | 80 | 0.0 | 0.0 | 0.00 | 0.01 | 0.01 | 83 | 1020.1 |
| 20260502031732 | 32 | 78 | 0.0 | 1.0 | 0.00 | 0.01 | 0.01 | 83 | 1020.2 |
| 20260502031229 | 32 | 85 | 0.0 | 0.0 | 0.00 | 0.01 | 0.01 | 83 | 1020.2 |
| 20260502030728 | 32 | 76 | 0.0 | 0.0 | 0.00 | 0.01 | 0.01 | 83 | 1020.2 |
| 20260502030225 | 32 | 82 | 0.0 | 0.0 | 0.00 | 0.01 | 0.01 | 84 | 1020.3 |
| 20260502025722 | 32 | 82 | 0.0 | 0.0 | 0.00 | 0.01 | 0.01 | 83 | 1020.2 |
| 20260502025220 | 32 | 85 | 0.0 | 0.0 | 0.00 | 0.01 | 0.01 | 82 | 1020.3 |
| 20260502024718 | 32 | 81 | 0.0 | 0.0 | 0.00 | 0.01 | 0.01 | 81 | 1020.2 |
| 20260502024215 | 33 | 85 | 0.0 | 0.0 | 0.00 | 0.01 | 0.01 | 80 | 1020.2 |
| 20260502023713 | 33 | 82 | 0.0 | 0.0 | 0.00 | 0.01 | 0.01 | 80 | 1020.2 |
| 20260502023210 | 33 | 81 | 0.0 | 0.0 | 0.00 | 0.01 | 0.01 | 79 | 1020.0 |
| 20260502022708 | 33 | 79 | 0.0 | 0.0 | 0.00 | 0.01 | 0.01 | 79 | 1020.1 |
| 20260502022204 | 33 | 82 | 0.0 | 0.0 | 0.00 | 0.01 | 0.01 | 79 | 1020.2 |
| 20260502021701 | 34 | 88 | 0.0 | 0.0 | 0.00 | 0.01 | 0.01 | 78 | 1020.1 |
| 20260502021159 | 35 | 81 | 0.0 | 0.0 | 0.00 | 0.01 | 0.01 | 76 | 1020.0 |
| 20260502020655 | 35 | 79 | 0.0 | 0.0 | 0.00 | 0.01 | 0.01 | 76 | 1019.7 |
| 20260502020152 | 35 | 81 | 0.0 | 0.0 | 0.00 | 0.01 | 0.01 | 75 | 1020.0 |
| 20260502015651 | 35 | 81 | 0.0 | 0.0 | 0.00 | 0.01 | 0.01 | 75 | 1019.9 |
| 20260502015146 | 35 | 82 | 0.0 | 0.0 | 0.00 | 0.01 | 0.01 | 74 | 1020.0 |
| 20260502014644 | 35 | 88 | 0.0 | 0.0 | 0.00 | 0.01 | 0.01 | 74 | 1019.9 |
| 20260502014141 | 36 | 83 | 0.0 | 0.0 | 0.00 | 0.01 | 0.01 | 73 | 1019.7 |
| 20260502013637 | 37 | 77 | 0.0 | 0.0 | 0.00 | 0.01 | 0.01 | 71 | 1019.7 |
| 20260502013132 | 36 | 80 | 0.0 | 0.0 | 0.00 | 0.01 | 0.01 | 70 | 1019.6 |
| 20260502012630 | 37 | 78 | 0.0 | 0.0 | 0.00 | 0.01 | 0.01 | 70 | 1019.7 |
| 20260502012128 | 37 | 86 | 0.0 | 1.0 | 0.00 | 0.01 | 0.01 | 69 | 1019.6 |
| 20260502011624 | 37 | 87 | 1.0 | 1.0 | 0.00 | 0.01 | 0.01 | 68 | 1019.5 |
| 20260502011120 | 37 | 85 | 0.0 | 0.0 | 0.00 | 0.01 | 0.01 | 68 | 1019.5 |
| 20260502010618 | 38 | 84 | 0.0 | 0.0 | 0.00 | 0.01 | 0.01 | 68 | 1019.5 |
| 20260502010115 | 38 | 86 | 1.0 | 1.0 | 0.00 | 0.01 | 0.01 | 67 | 1019.2 |
| 20260502005613 | 38 | 85 | 0.0 | 0.0 | 0.00 | 0.01 | 0.01 | 67 | 1019.5 |
| 20260502005110 | 39 | 85 | 0.0 | 1.0 | 0.00 | 0.01 | 0.01 | 66 | 1019.6 |
| 20260502004605 | 39 | 86 | 0.0 | 1.0 | 0.00 | 0.01 | 0.01 | 67 | 1019.4 |
| 20260502004102 | 39 | 86 | 1.0 | 1.0 | 0.00 | 0.01 | 0.01 | 66 | 1019.4 |
| 20260502003601 | 40 | 86 | 0.0 | 0.0 | 0.00 | 0.01 | 0.01 | 64 | 1019.4 |
| 20260502003057 | 40 | 96 | 1.0 | 2.0 | 0.00 | 0.01 | 0.01 | 63 | 1019.4 |
| 20260502002553 | 40 | 96 | 1.0 | 1.0 | 0.00 | 0.01 | 0.01 | 63 | 1019.3 |
| 20260502002050 | 41 | 88 | 2.0 | 2.0 | 0.00 | 0.01 | 0.01 | 62 | 1019.3 |
| 20260502001549 | 41 | 83 | 0.0 | 0.0 | 0.00 | 0.01 | 0.01 | 63 | 1019.5 |
| 20260502001045 | 41 | 86 | 0.0 | 1.0 | 0.00 | 0.01 | 0.01 | 62 | 1019.3 |
| 20260502000543 | 41 | 119 | 1.0 | 1.0 | 0.00 | 0.01 | 0.01 | 62 | 1019.4 |
| 20260502000040 | 41 | 86 | 2.0 | 2.0 | 0.00 | 0.01 | 0.01 | 61 | 1019.1 |
| 20260501235536 | 41 | 93 | 0.0 | 0.0 | 0.00 | 0.01 | 0.01 | 62 | 1019.2 |
| 20260501235032 | 42 | 92 | 1.0 | 2.0 | 0.00 | 0.01 | 0.01 | 61 | 1019.2 |
| 20260501234528 | 42 | 86 | 1.0 | 1.0 | 0.00 | 0.01 | 0.01 | 61 | 1019.2 |
| 20260501234026 | 42 | 85 | 1.0 | 1.0 | 0.00 | 0.01 | 0.01 | 60 | 1019.2 |
| 20260501233524 | 43 | 75 | 2.0 | 3.0 | 0.00 | 0.01 | 0.01 | 57 | 1019.6 |
| 20260501233020 | 43 | 54 | 1.0 | 2.0 | 0.00 | 0.01 | 0.01 | 59 | 1019.2 |